Location: Boiro
(42.6475°N, 8.8834°W)
Time: 11:17:32
(UTC+01:00)

Tiros 1 - Pass Details

Date: 02 December 2021
Orbit: 630 x 663 km, 48.4° (Epoch: 20 January)

Event Time Altitude Azimuth Distance (km) Brightness Sun altitude
Rises 18:53:03 0° 186° (S) 2,903 10.9 -9.2°
Reaches altitude 10° 18:56:32 10° 159° (SSE) 2,006 9.7 -9.8°
Maximum altitude 18:58:38 13° 131° (SE) 1,817 9.2 -10.1°
Drops below altitude 10° 19:00:46 10° 104° (ESE) 2,020 9.2 -10.5°
Enters shadow 19:00:58 10° 102° (ESE) 2,057 9.2 -10.5°
